Regional Weather Roundup
Issued by NWS

Home | Current Version | Previous Version | Graphics & Text | Print | Product List | Glossary On
Versions: 1 2 3 4 5 6 7 8 9 10 11 12 13 14 15 16 17 18 19 20 21 22 23 24 25 26 27 28 29 30 31 32 33 34 35 36 37 38 39 40 41 42 43 44 45 46 47 48 49 50
000
ASUS44 KMEG 072010
RWRTN
TENNESSEE HOURLY STATE WEATHER ROUNDUP
NATIONAL WEATHER SERVICE MEMPHIS TN
200 PM CST SUN FEB 07 2016

TNZ002-004-019-021-049-052-054-088>092-072100-
WEST TENNESSEE

CITY           SKY/WX    TMP DP  RH WIND       PRES   REMARKS
MEMPHIS INTL   PTSUNNY   57  28  33 SW8G23    30.07F
NWS MEMPHIS      N/A     56 N/A N/A MISG        N/A
JACKSON        SUNNY     58  24  27 SW16      30.04F
DYERSBURG      MOSUNNY   57  28  33 SW22G29   30.02F
UNION CITY     SUNNY     55  27  33 SW12      29.99F
PARIS          SUNNY     54  25  32 SW15      30.01F
$$

TNZ008-025-027-028-033-062-065-066-072100-
NORTH MIDDLE TENNESSEE

CITY           SKY/WX    TMP DP  RH WIND       PRES   REMARKS
NASHVILLE      PTSUNNY   56  15  20 S13       30.03F
CLARKSVILLE    SUNNY     55  22  27 SW13G22   30.00F
SMYRNA         SUNNY     57  22  26 W8G18     30.04F
COOKEVILLE     SUNNY     54  27  35 VRB5      30.02F
CROSSVILLE     SUNNY     50  18  28 VRB6G17   30.02F
$$

TNZ061-075-076-078-094-096-097-072100-
SOUTH MIDDLE TENNESSEE

CITY           SKY/WX    TMP DP  RH WIND       PRES   REMARKS
FAYETTEVILLE   SUNNY     54  23  30 SW10G16   30.05F
TULLAHOMA      SUNNY     54  16  22 SW5       30.05F
WINCHESTER     SUNNY     52  21  30 VRB7      30.05F
MCMINNVILLE    SUNNY     54  23  30 SW9       30.04F
COLUMBIA       SUNNY     55  23  28 S12       30.02F
SHELBYVILLE    SUNNY     57  25  28 SW12      30.05F
$$

TNZ017-018-042-046-047-072100-
NORTHEAST TENNESSEE

CITY           SKY/WX    TMP DP  RH WIND       PRES   REMARKS
TRI CITIES     MOSUNNY   50  24  36 N7        29.99F
$$

TNZ012-013-036-069-073-074-072100-
CENTRAL EAST TENNESSEE

CITY           SKY/WX    TMP DP  RH WIND       PRES   REMARKS
KNOXVILLE      MOSUNNY   50  21  32 CALM      30.02F
OAK RIDGE      SUNNY     54  22  28 VRB6      30.03F
GATLINBURG     CLEAR     50  19  29 VRB3      30.01F
MORRISTOWN     CLEAR     50  23  34 SW6       30.00F
$$

TNZ083-085-099-072100-
SOUTHEAST TENNESSEE

CITY           SKY/WX    TMP DP  RH WIND       PRES   REMARKS
CHATTANOOGA    MOSUNNY   56  21  25 VRB3      30.04F
$$

SKY/WX REPORTED AS FAIR MEANS FEW OR NO CLOUDS BELOW
12 THOUSAND FEET.




USA.gov is the U.S. government's official web portal to all federal, state and local government web resources and services.